Location: Petrozavodsk
(61.7857°N, 34.3593°E)
Time: 08:39:36
(UTC+03:00)

Terra - Pass Details

Date: 30 October 2019
Orbit: 702 x 703 km, 98.2° (Epoch: 16 November)

Event Time Altitude Azimuth Distance (km) Brightness Sun altitude
Exits shadow 22:09:24 22° 343° (NNW) 1,545 4.0 -36.2°
Drops below altitude 10° 22:11:02 10° 342° (NNW) 2,185 5.0 -36.3°
Sets 22:13:18 0° 342° (NNW) 3,108 6.0 -36.5°
